Time,TemperatureF,DewpointF,PressureIn,WindDirection,WindDirectionDegrees,WindSpeedMPH,WindSpeedGustMPH,Humidity,HourlyPrecipIn,Conditions,Clouds,dailyrainin,SoftwareType,DateUTC
2013-11-03 00:07:00,46.8,28.0,31.04,WNW,298,0.0,-999.0,48,-99.99,,,0.00,weatherlink.com 1.10,2013-11-03 05:07:00,
2013-11-03 00:22:00,47.0,29.0,31.03,WNW,298,0.0,-999.0,49,-99.99,,,0.00,weatherlink.com 1.10,2013-11-03 05:22:00,
2013-11-03 00:37:00,47.4,30.0,31.03,WNW,298,0.0,-999.0,51,-99.99,,,0.00,weatherlink.com 1.10,2013-11-03 05:37:00,
2013-11-03 00:52:00,47.7,30.0,31.03,WNW,298,0.0,-999.0,51,-99.99,,,0.00,weatherlink.com 1.10,2013-11-03 05:52:00,
2013-11-03 01:06:00,47.2,30.0,31.03,WNW,298,0.0,-999.0,51,-99.99,,,0.00,weatherlink.com 1.10,2013-11-03 06:06:00,
2013-11-03 01:21:00,46.9,29.0,31.03,WNW,298,0.0,-999.0,50,-99.99,,,0.00,weatherlink.com 1.10,2013-11-03 06:21:00,
2013-11-03 01:36:00,46.7,28.0,31.03,WNW,298,0.0,-999.0,48,-99.99,,,0.00,weatherlink.com 1.10,2013-11-03 06:36:00,
2013-11-03 01:51:00,46.3,27.0,31.03,WNW,298,0.0,-999.0,48,-99.99,,,0.00,weatherlink.com 1.10,2013-11-03 06:51:00,
2013-11-03 01:06:00,46.0,27.0,31.04,WNW,298,0.0,-999.0,47,-99.99,,,0.00,weatherlink.com 1.10,2013-11-03 07:06:00,
2013-11-03 01:21:00,45.7,26.0,31.03,WNW,298,0.0,-999.0,47,-99.99,,,0.00,weatherlink.com 1.10,2013-11-03 07:21:00,
2013-11-03 01:36:00,45.3,26.0,31.03,WNW,298,0.0,-999.0,47,-99.99,,,0.00,weatherlink.com 1.10,2013-11-03 07:36:00,
2013-11-03 01:51:00,45.1,26.0,31.03,WNW,298,0.0,-999.0,47,-99.99,,,0.00,weatherlink.com 1.10,2013-11-03 07:51:00,
2013-11-03 02:06:00,44.7,25.0,31.03,WNW,298,0.0,-999.0,47,-99.99,,,0.00,weatherlink.com 1.10,2013-11-03 08:06:00,
2013-11-03 02:21:00,44.3,25.0,31.02,WNW,298,0.0,-999.0,47,-99.99,,,0.00,weatherlink.com 1.10,2013-11-03 08:21:00,
2013-11-03 02:36:00,44.3,25.0,31.02,WNW,298,0.0,-999.0,47,-99.99,,,0.00,weatherlink.com 1.10,2013-11-03 08:36:00,
2013-11-03 02:51:00,44.1,25.0,31.02,WNW,298,0.0,-999.0,47,-99.99,,,0.00,weatherlink.com 1.10,2013-11-03 08:51:00,
2013-11-03 03:06:00,43.9,25.0,31.02,WNW,298,0.0,-999.0,48,-99.99,,,0.00,weatherlink.com 1.10,2013-11-03 09:06:00,
2013-11-03 03:21:00,43.5,25.0,31.01,WNW,298,0.0,-999.0,48,-99.99,,,0.00,weatherlink.com 1.10,2013-11-03 09:21:00,
2013-11-03 03:36:00,43.5,24.0,31.02,WNW,298,0.0,-999.0,47,-99.99,,,0.00,weatherlink.com 1.10,2013-11-03 09:36:00,
2013-11-03 03:51:00,43.5,24.0,31.01,WNW,298,0.0,-999.0,46,-99.99,,,0.00,weatherlink.com 1.10,2013-11-03 09:51:00,
2013-11-03 04:06:00,43.6,24.0,31.01,WNW,298,0.0,-999.0,46,-99.99,,,0.00,weatherlink.com 1.10,2013-11-03 10:06:00,
2013-11-03 04:21:00,44.7,24.0,31.01,WNW,298,0.0,-999.0,45,-99.99,,,0.00,weatherlink.com 1.10,2013-11-03 10:21:00,
2013-11-03 04:36:00,46.5,30.0,31.01,NW,304,0.0,-999.0,54,-99.99,,,0.00,weatherlink.com 1.10,2013-11-03 10:36:00,
2013-11-03 04:51:00,47.2,35.0,31.02,NW,304,1.0,-999.0,62,-99.99,,,0.00,weatherlink.com 1.10,2013-11-03 10:51:00,
2013-11-03 05:07:00,47.3,36.0,31.01,NW,304,0.0,-999.0,66,-99.99,,,0.00,weatherlink.com 1.10,2013-11-03 11:07:00,
2013-11-03 05:22:00,47.2,36.0,31.01,NW,304,0.0,-999.0,66,-99.99,,,0.00,weatherlink.com 1.10,2013-11-03 11:22:00,
2013-11-03 05:37:00,47.1,36.0,31.02,NW,304,0.0,-999.0,66,-99.99,,,0.00,weatherlink.com 1.10,2013-11-03 11:37:00,
2013-11-03 05:52:00,47.0,36.0,31.02,NW,304,0.0,-999.0,66,-99.99,,,0.00,weatherlink.com 1.10,2013-11-03 11:52:00,
2013-11-03 06:07:00,46.5,35.0,31.02,NW,304,0.0,-999.0,64,-99.99,,,0.00,weatherlink.com 1.10,2013-11-03 12:07:00,
2013-11-03 06:22:00,46.3,34.0,31.02,NW,304,0.0,-999.0,62,-99.99,,,0.00,weatherlink.com 1.10,2013-11-03 12:22:00,
2013-11-03 06:37:00,46.5,34.0,31.02,NW,304,0.0,-999.0,61,-99.99,,,0.00,weatherlink.com 1.10,2013-11-03 12:37:00,
2013-11-03 06:52:00,47.0,34.0,31.03,NW,304,0.0,-999.0,60,-99.99,,,0.00,weatherlink.com 1.10,2013-11-03 12:52:00,
2013-11-03 07:07:00,47.8,34.0,31.03,NW,318,0.0,-999.0,60,-99.99,,,0.00,weatherlink.com 1.10,2013-11-03 13:07:00,
2013-11-03 07:22:00,49.4,37.0,31.03,North,360,0.0,-999.0,62,-99.99,,,0.00,weatherlink.com 1.10,2013-11-03 13:22:00,
2013-11-03 07:37:00,50.7,39.0,31.04,ENE,66,1.0,-999.0,65,-99.99,,,0.00,weatherlink.com 1.10,2013-11-03 13:37:00,
2013-11-03 07:52:00,52.2,41.0,31.04,ENE,66,2.0,-999.0,67,-99.99,,,0.00,weatherlink.com 1.10,2013-11-03 13:52:00,
2013-11-03 08:07:00,53.3,43.0,31.04,ESE,108,2.0,-999.0,69,-99.99,,,0.00,weatherlink.com 1.10,2013-11-03 14:07:00,
2013-11-03 08:22:00,53.7,44.0,31.05,East,80,4.0,-999.0,69,-99.99,,,0.00,weatherlink.com 1.10,2013-11-03 14:22:00,
2013-11-03 08:37:00,54.8,45.0,31.04,East,90,4.0,-999.0,69,-99.99,,,0.00,weatherlink.com 1.10,2013-11-03 14:37:00,
2013-11-03 08:52:00,56.2,46.0,31.04,NE,46,7.0,-999.0,68,-99.99,,,0.00,weatherlink.com 1.10,2013-11-03 14:52:00,
2013-11-03 09:07:00,57.3,46.0,31.04,NE,46,5.0,-999.0,67,-99.99,,,0.00,weatherlink.com 1.10,2013-11-03 15:07:00,
2013-11-03 09:22:00,58.5,47.0,31.03,ENE,75,1.0,-999.0,66,-99.99,,,0.00,weatherlink.com 1.10,2013-11-03 15:22:00,
2013-11-03 09:37:00,59.1,47.0,31.03,ESE,103,3.0,-999.0,65,-99.99,,,0.00,weatherlink.com 1.10,2013-11-03 15:37:00,
2013-11-03 09:52:00,59.7,47.0,31.02,SE,133,6.0,-999.0,64,-99.99,,,0.00,weatherlink.com 1.10,2013-11-03 15:52:00,
2013-11-03 10:07:00,60.1,48.0,31.02,SE,125,7.0,-999.0,64,-99.99,,,0.00,weatherlink.com 1.10,2013-11-03 16:07:00,
2013-11-03 10:22:00,60.8,48.0,31.02,East,79,2.0,-999.0,62,-99.99,,,0.00,weatherlink.com 1.10,2013-11-03 16:22:00,
2013-11-03 10:37:00,61.6,47.0,31.01,SE,126,5.0,-999.0,59,-99.99,,,0.00,weatherlink.com 1.10,2013-11-03 16:37:00,
2013-11-03 10:52:00,62.1,47.0,31.00,NE,53,4.0,-999.0,58,-99.99,,,0.00,weatherlink.com 1.10,2013-11-03 16:52:00,
2013-11-03 11:07:00,62.9,48.0,31.00,SE,138,4.0,-999.0,58,-99.99,,,0.00,weatherlink.com 1.10,2013-11-03 17:07:00,
2013-11-03 11:22:00,63.6,47.0,30.99,ESE,108,1.0,-999.0,55,-99.99,,,0.00,weatherlink.com 1.10,2013-11-03 17:22:00,
2013-11-03 11:38:00,64.4,49.0,30.98,ESE,119,5.0,-999.0,57,-99.99,,,0.00,weatherlink.com 1.10,2013-11-03 17:38:00,
2013-11-03 11:53:00,65.1,47.0,30.97,ESE,116,5.0,-999.0,53,-99.99,,,0.00,weatherlink.com 1.10,2013-11-03 17:53:00,
2013-11-03 12:08:00,65.3,48.0,30.96,SE,136,2.0,-999.0,53,-99.99,,,0.00,weatherlink.com 1.10,2013-11-03 18:08:00,
2013-11-03 12:23:00,66.3,49.0,30.95,SE,134,4.0,-999.0,54,-99.99,,,0.00,weatherlink.com 1.10,2013-11-03 18:23:00,
2013-11-03 12:38:00,66.5,46.0,30.95,East,96,3.0,-999.0,48,-99.99,,,0.00,weatherlink.com 1.10,2013-11-03 18:38:00,
2013-11-03 12:53:00,67.0,48.0,30.95,South,186,6.0,-999.0,51,-99.99,,,0.00,weatherlink.com 1.10,2013-11-03 18:53:00,
2013-11-03 13:08:00,67.2,48.0,30.94,SE,128,5.0,-999.0,51,-99.99,,,0.00,weatherlink.com 1.10,2013-11-03 19:08:00,
2013-11-03 13:23:00,67.3,48.0,30.94,South,182,4.0,-999.0,51,-99.99,,,0.00,weatherlink.com 1.10,2013-11-03 19:23:00,
2013-11-03 13:38:00,67.8,49.0,30.94,SSE,167,10.0,-999.0,51,-99.99,,,0.00,weatherlink.com 1.10,2013-11-03 19:38:00,
2013-11-03 13:53:00,67.7,48.0,30.93,East,86,5.0,-999.0,50,-99.99,,,0.00,weatherlink.com 1.10,2013-11-03 19:53:00,
2013-11-03 14:08:00,68.3,49.0,30.92,South,173,5.0,-999.0,51,-99.99,,,0.00,weatherlink.com 1.10,2013-11-03 20:08:00,
2013-11-03 14:23:00,68.4,50.0,30.91,SSE,153,6.0,-999.0,53,-99.99,,,0.00,weatherlink.com 1.10,2013-11-03 20:23:00,
2013-11-03 14:38:00,68.7,50.0,30.91,SSE,163,0.0,-999.0,52,-99.99,,,0.00,weatherlink.com 1.10,2013-11-03 20:38:00,
2013-11-03 14:53:00,69.1,51.0,30.91,ESE,109,0.0,-999.0,52,-99.99,,,0.00,weatherlink.com 1.10,2013-11-03 20:53:00,
2013-11-03 15:08:00,68.6,51.0,30.90,SSE,157,0.0,-999.0,54,-99.99,,,0.00,weatherlink.com 1.10,2013-11-03 21:08:00,
2013-11-03 15:23:00,69.2,52.0,30.90,SSE,147,0.0,-999.0,54,-99.99,,,0.00,weatherlink.com 1.10,2013-11-03 21:23:00,
2013-11-03 15:38:00,68.9,51.0,30.90,South,184,0.0,-999.0,54,-99.99,,,0.00,weatherlink.com 1.10,2013-11-03 21:38:00,
2013-11-03 15:53:00,69.0,52.0,30.90,South,178,0.0,-999.0,54,-99.99,,,0.00,weatherlink.com 1.10,2013-11-03 21:53:00,
2013-11-03 16:08:00,68.8,52.0,30.89,SSE,168,0.0,-999.0,55,-99.99,,,0.00,weatherlink.com 1.10,2013-11-03 22:08:00,
2013-11-03 16:23:00,68.3,52.0,30.89,SSE,164,0.0,-999.0,56,-99.99,,,0.00,weatherlink.com 1.10,2013-11-03 22:23:00,
2013-11-03 16:38:00,68.1,52.0,30.89,SSE,160,0.0,-999.0,56,-99.99,,,0.00,weatherlink.com 1.10,2013-11-03 22:38:00,
2013-11-03 16:53:00,67.0,52.0,30.90,ESE,123,0.0,-999.0,59,-99.99,,,0.00,weatherlink.com 1.10,2013-11-03 22:53:00,
2013-11-03 17:08:00,66.0,52.0,30.89,South,169,1.0,-999.0,61,-99.99,,,0.00,weatherlink.com 1.10,2013-11-03 23:08:00,
2013-11-03 17:23:00,64.7,52.0,30.89,South,169,0.0,-999.0,64,-99.99,,,0.00,weatherlink.com 1.10,2013-11-03 23:23:00,
2013-11-03 17:38:00,63.6,52.0,30.89,SSE,167,0.0,-999.0,65,-99.99,,,0.00,weatherlink.com 1.10,2013-11-03 23:38:00,
2013-11-03 17:53:00,62.9,51.0,30.90,East,92,1.0,-999.0,65,-99.99,,,0.00,weatherlink.com 1.10,2013-11-03 23:53:00,
2013-11-03 18:08:00,62.2,51.0,30.90,East,87,3.0,-999.0,66,-99.99,,,0.00,weatherlink.com 1.10,2013-11-04 00:08:00,
2013-11-03 18:23:00,62.1,51.0,30.91,ENE,76,4.0,-999.0,67,-99.99,,,0.00,weatherlink.com 1.10,2013-11-04 00:23:00,
2013-11-03 18:38:00,61.8,51.0,30.91,ENE,78,6.0,-999.0,67,-99.99,,,0.00,weatherlink.com 1.10,2013-11-04 00:38:00,
2013-11-03 18:53:00,61.6,50.0,30.92,ESE,103,2.0,-999.0,67,-99.99,,,0.00,weatherlink.com 1.10,2013-11-04 00:53:00,
2013-11-03 19:08:00,61.4,50.0,30.92,East,92,2.0,-999.0,67,-99.99,,,0.00,weatherlink.com 1.10,2013-11-04 01:08:00,
2013-11-03 19:23:00,61.0,50.0,30.92,East,89,2.0,-999.0,68,-99.99,,,0.00,weatherlink.com 1.10,2013-11-04 01:23:00,
2013-11-03 19:38:00,60.7,50.0,30.92,ESE,115,3.0,-999.0,67,-99.99,,,0.00,weatherlink.com 1.10,2013-11-04 01:38:00,
2013-11-03 19:53:00,60.3,50.0,30.93,East,92,0.0,-999.0,68,-99.99,,,0.00,weatherlink.com 1.10,2013-11-04 01:53:00,
2013-11-03 20:10:00,60.1,49.0,30.93,East,98,1.0,-999.0,68,-99.99,,,0.00,weatherlink.com 1.10,2013-11-04 02:10:00,
2013-11-03 20:23:00,59.3,48.0,30.94,East,100,1.0,-999.0,67,-99.99,,,0.00,weatherlink.com 1.10,2013-11-04 02:23:00,
2013-11-03 20:38:00,59.0,48.0,30.94,ENE,78,0.0,-999.0,67,-99.99,,,0.00,weatherlink.com 1.10,2013-11-04 02:38:00,
2013-11-03 20:53:00,58.7,48.0,30.94,East,94,2.0,-999.0,67,-99.99,,,0.00,weatherlink.com 1.10,2013-11-04 02:53:00,
2013-11-03 21:08:00,58.3,47.0,30.93,East,81,3.0,-999.0,67,-99.99,,,0.00,weatherlink.com 1.10,2013-11-04 03:08:00,
2013-11-03 21:23:00,58.1,48.0,30.92,East,101,4.0,-999.0,68,-99.99,,,0.00,weatherlink.com 1.10,2013-11-04 03:23:00,
2013-11-03 21:38:00,58.0,47.0,30.93,NE,52,1.0,-999.0,68,-99.99,,,0.00,weatherlink.com 1.10,2013-11-04 03:38:00,
2013-11-03 21:53:00,57.6,47.0,30.93,ESE,109,2.0,-999.0,68,-99.99,,,0.00,weatherlink.com 1.10,2013-11-04 03:53:00,
2013-11-03 22:08:00,57.4,47.0,30.93,East,86,4.0,-999.0,68,-99.99,,,0.00,weatherlink.com 1.10,2013-11-04 04:08:00,
2013-11-03 22:23:00,57.1,47.0,30.92,East,80,4.0,-999.0,68,-99.99,,,0.00,weatherlink.com 1.10,2013-11-04 04:23:00,
2013-11-03 22:38:00,56.5,46.0,30.92,East,80,5.0,-999.0,68,-99.99,,,0.00,weatherlink.com 1.10,2013-11-04 04:38:00,
2013-11-03 22:53:00,56.0,46.0,30.91,NE,49,10.0,-999.0,69,-99.99,,,0.00,weatherlink.com 1.10,2013-11-04 04:53:00,
2013-11-03 23:08:00,55.8,46.0,30.90,ENE,63,4.0,-999.0,69,-99.99,,,0.00,weatherlink.com 1.10,2013-11-04 05:08:00,
2013-11-03 23:23:00,55.5,45.0,30.89,East,81,4.0,-999.0,69,-99.99,,,0.00,weatherlink.com 1.10,2013-11-04 05:23:00,
2013-11-03 23:38:00,55.4,45.0,30.90,East,84,4.0,-999.0,69,-99.99,,,0.00,weatherlink.com 1.10,2013-11-04 05:38:00,
2013-11-03 23:53:00,55.5,45.0,30.89,ESE,109,2.0,-999.0,69,-99.99,,,0.00,weatherlink.com 1.10,2013-11-04 05:53:00,